AO-07 1 07530U 74089B 15007.53316090 -.00000016 00000-0 17398-3 0 1624 2 07530 101.5006 347.8297 0011661 256.2032 250.7734 12.53610644837126 FO-29 1 24278U 96046B 15007.54982613 .00000027 00000-0 60033-4 0 5518 2 24278 098.5220 358.2311 0351385 127.3429 344.2123 13.53040092908303 SO-33 1 25509U 98061B 15008.58168241 .00000243 00000-0 36639-4 0 9196 2 25509 031.4331 076.3929 0348600 114.2306 029.4995 14.29796712846567 RS-22 1 27939U 03042A 15008.55689936 .00001207 00000-0 22985-3 0 1995 2 27939 097.8198 177.7536 0012969 171.9023 188.2394 14.65696588602809 HO-68 1 36122U 09072B 15008.78299803 -.00000060 00000-0 -43517-4 0 2818 2 36122 100.2199 059.1162 0007787 126.2657 233.9175 13.16322568243488 AO-73 1 39444U 13066AE 15008.45495324 .00003326 00000-0 43962-3 0 3524 2 39444 097.7515 076.9864 0059485 296.5125 062.9995 14.79417315 59793 EO-79 1 40025U 14033R 15008.78021203 .00004076 00000-0 46833-3 0 5966 2 40025 097.9673 268.7616 0013222 352.2682 007.8356 14.86323810 30118 UO-11 1 14781U 84021B 15007.36902658 .00001004 00000-0 13289-3 0 7087 2 14781 097.8250 068.2476 0007818 228.2071 131.8475 14.82072381658209 AO-16 1 20439U 90005D 15007.43590498 .00000199 00000-0 89569-4 0 2125 2 20439 098.5278 306.1179 0009709 275.3511 223.5739 14.32468423303728 LO-19 1 20442U 90005G 15008.41411657 .00000212 00000-0 94044-4 0 1463 2 20442 098.4988 307.1181 0010680 259.2938 100.7043 14.32666058304063 AO-27 1 22825U 93061C 15007.48260322 .00000186 00000-0 89772-4 0 8607 2 22825 098.6896 317.7352 0009310 064.1593 073.0343 14.29815691109978 IO-26 1 22826U 93061D 15008.45733035 .00000242 00000-0 11085-3 0 6187 2 22826 098.6838 318.8963 0009700 054.1726 306.0356 14.30126723110254 GO-32 1 25397U 98043D 15008.49593590 .00000114 00000-0 68586-4 0 5391 2 25397 098.4995 324.1311 0002380 087.0237 051.0836 14.23505496857076 NO-44 1 26931U 01043C 15008.57761306 .00000136 00000-0 84291-4 0 7938 2 26931 067.0502 228.7802 0007010 268.2690 091.7608 14.30236243692975 SO-50 1 27607U 02058C 15007.37088002 .00001583 00000-0 24983-3 0 6250 2 27607 064.5575 329.6857 0071010 320.8118 038.7853 14.74337145647570 CO-55 1 27844U 03031E 15008.53028825 .00000369 00000-0 18770-3 0 1119 2 27844 098.6976 019.3397 0010260 047.8707 104.1813 14.21679955597756 CO-57 1 27848U 03031J 15007.52560047 .00000287 00000-0 15150-3 0 485 2 27848 098.7073 018.1721 0010366 056.9095 094.8184 14.21342931597527 AO-51 1 28375U 04025K 15007.49443210 .00000317 00000-0 10636-3 0 324 2 28375 098.2766 312.7152 0084129 095.1201 265.9598 14.41547603553347 CP3 1 31129U 07012N 15007.50062174 .00001393 00000-0 31085-3 0 9417 2 31129 097.9609 340.4799 0098833 094.5709 052.3204 14.55323355409745 CO-65 1 32785U 08021C 15008.18037983 .00002732 00000-0 31657-3 0 1608 2 32785 097.6718 057.5124 0012634 230.0080 178.6601 14.86204839362463 PRISM 1 33493U 09002B 15008.86983300 .00007442 00000-0 74448-3 0 6516 2 33493 098.2504 198.6399 0017507 130.8172 229.4577 14.91634824322813 SOHLA-1 1 33496U 09002E 15007.95662119 .00000655 00000-0 11480-3 0 5571 2 33496 098.1909 134.7248 0005245 319.2003 179.8294 14.71132391319618 TISAT-1 1 36799U 10035E 15008.22273957 .00005115 00000-0 57264-3 0 8341 2 36799 098.0158 106.9297 0013395 017.3523 012.6396 14.87271953243174 STUDSAT 1 36801U 10035G 15007.94221870 .00024551 00000-0 17608-2 0 9781 2 36801 098.0533 119.6194 0006360 322.4932 173.6384 15.04320639243812 ALMASAT-1 1 38078U 12006B 15008.83886697 .00042373 00000-0 81118-3 0 2640 2 38078 069.4607 278.2822 0528504 116.4622 249.1979 14.65518824151582 XATCOBEO 1 38082U 12006F 14243.34478676 .13583328 43697-5 37939-3 0 5637 2 38082 069.3815 097.0364 0033293 225.1799 135.4582 16.41261006136239 CUBEBUG-1 1 39153U 13018D 15008.48142297 .00002858 00000-0 39675-3 0 7753 2 39153 098.0279 093.3098 0018388 052.3532 307.9344 14.78592016 91876 ESTCUBE-1 1 39161U 13021C 15008.88779460 .00002007 00000-0 33747-3 0 8254 2 39161 098.0837 093.1950 0011102 101.6075 258.6350 14.70679342 89828 DUCHIFAT-1 1 40021U 14033M 15008.67938966 .00006188 00000-0 69871-3 0 6002 2 40021 097.9677 268.7831 0013540 353.7808 006.3286 14.86831528 30099 NANOSATCBR1 1 40024U 14033Q 15008.69986524 .00004706 00000-0 53649-3 0 5908 2 40024 097.9695 268.7126 0012935 353.6502 006.4572 14.86566025 30092 DTUSAT-2 1 40030U 14033W 15008.42743234 .00003561 00000-0 41392-3 0 5826 2 40030 097.9685 268.2692 0012494 347.2807 012.8062 14.85929397 30053 ANTELSAT 1 40034U 14033AA 15008.75242198 .00003637 00000-0 57054-3 0 5971 2 40034 097.9627 264.1943 0059699 270.4408 088.9953 14.72076837 29834 MET-2/21 1 22782U 93055A 15008.51695647 .00000076 00000-0 55018-4 0 2696 2 22782 082.5492 010.3740 0023165 051.9866 110.9012 13.83756138 78510 OKEAN-4 1 23317U 94066A 15008.55059192 .00001445 00000-0 16119-3 0 7545 2 23317 082.5366 235.3105 0021410 136.3003 269.7667 14.86200368 93600 NOAA-14 1 23455U 94089A 15008.50465730 .00000087 00000-0 68472-4 0 440 2 23455 098.7641 093.1702 0009916 169.6685 311.5073 14.14014800 32967 NOAA-15 1 25338U 98030A 15008.51443174 .00000222 00000-0 11283-3 0 4858 2 25338 098.7660 007.1168 0009584 271.3490 248.7828 14.25545363866090 RESURS 1 25394U 98043A 15007.50469172 .00000068 00000-0 47313-4 0 8483 2 25394 098.4440 328.5787 0001992 059.1044 048.6006 14.24432922857409 FENGYUN1 1 25730U 99025A 15007.53671091 .00002652 00000-0 14478-2 0 3374 2 25730 098.9315 332.6338 0019340 254.5733 239.6816 14.12840175806369 OKEAN-0 1 25860U 99039A 15008.53722495 .00001075 00000-0 16470-3 0 4610 2 25860 098.0733 336.5648 0001981 105.9767 030.8345 14.75725961832432 NOAA-16 1 26536U 00055A 15008.49692975 .00000084 00000-0 69351-4 0 9829 2 26536 098.9640 074.4732 0009738 327.8096 032.2480 14.13068565737105 NOAA-17 1 27453U 02032A 15008.53405261 .00000123 00000-0 70097-4 0 8754 2 27453 098.3275 002.5593 0010581 292.7373 067.2688 14.24841097651929 NOAA-18 1 28654U 05018A 15008.53282799 .00000304 00000-0 19091-3 0 3970 2 28654 099.1717 357.3990 0014929 051.2252 097.7266 14.12130279496544 NOAA-19 1 33591U 09005A 15008.53114896 .00000161 00000-0 11279-3 0 5274 2 33591 098.9712 318.2053 0013087 259.2449 230.8427 14.11851585304962 HUBBLE 1 20580U 90037B 15007.72696569 .00002812 00000-0 17370-3 0 1959 2 20580 028.4702 131.5985 0002851 323.1651 180.9493 15.06582142155581 ISS 1 25544U 98067A 15008.79170417 .00014663 00000-0 23688-3 0 7000 2 25544 051.6458 159.6477 0006317 227.4134 285.9787 15.53092765923238 CO-58 1 28895U 05043F 15008.51927961 .00001198 00000-0 24499-3 0 9640 2 28895 097.8218 204.6450 0018455 083.2937 277.0365 14.62405837490255 FALCON 1 30776U 07006E 15007.21273191 .00011661 00000-0 52242-3 0 461 2 30776 035.4282 287.4060 0004450 288.2266 197.2923 15.20507041431751 MAST 1 31126U 07012K 15008.49505372 .00001182 00000-0 26503-3 0 2468 2 31126 097.9407 344.0082 0092769 074.3906 042.8951 14.55717081410254 CAPE1 1 31130U 07012P 15008.87635437 .00001465 00000-0 32813-3 0 2523 2 31130 097.9624 341.3072 0099442 091.9721 269.2869 14.55038707409717 COMPASS 1 32787U 08021E 15008.19228510 .00005293 00000-0 56035-3 0 1476 2 32787 097.6740 060.7146 0012713 219.0669 140.9631 14.89503318362684 AAUSAT2 1 32788U 08021F 15007.55239676 .00007026 00000-0 72580-3 0 1335 2 32788 097.6756 061.3503 0012066 217.7123 142.3251 14.90390882362661 DO-64 1 32789U 08021G 15008.12495663 .00012943 00000-0 11289-2 0 1871 2 32789 097.6955 070.6053 0011146 194.1102 221.5172 14.96935207363114 CO-66 1 32791U 08021J 15008.41824928 .00004693 00000-0 51834-3 0 1308 2 32791 097.6739 059.2295 0013205 223.3272 136.6908 14.87831913362558 RS-30 1 32953U 08025A 15008.71258593 .00000010 00000-0 -13620-7 0 6258 2 32953 082.5048 073.4243 0019385 070.3288 289.9884 12.43054692300791 METEOR-M 1 35865U 09049A 15008.62484966 -.00000073 00000-0 -14129-4 0 2332 2 35865 098.5202 054.5142 0001921 208.8999 151.2069 14.21977128275532 RS-38 1 35869U 09049E 15008.82955729 -.00000430 00000-0 -17461-3 0 1414 2 35869 098.5124 054.4173 0004293 207.1432 152.9516 14.22259748275606 JUGNU 1 37839U 11058B 15007.57814563 .00000469 00000-0 10867-3 0 7685 2 37839 019.9621 096.1026 0019183 075.9674 049.3778 14.12403377167480 SRMSAT 1 37841U 11058D 15007.65054390 .00000425 00000-0 89238-4 0 7738 2 37841 019.9722 119.1034 0012121 009.3549 128.8214 14.10427768167258 RAX-2 1 37853U 11061D 15008.30572178 .00016826 00000-0 10702-2 0 99 2 37853 101.7042 141.2271 0205321 182.2024 244.7707 14.93152382173227 AUBIESAT 1 37854U 11061E 15008.35585582 .00019901 00000-0 12174-2 0 89 2 37854 101.7103 143.9667 0201335 178.0645 245.2138 14.94946444173312 HRBE 1 37855U 11061F 15008.57459843 .00020816 00000-0 12919-2 0 303 2 37855 101.7089 143.2937 0204697 179.2661 180.8884 14.93988016173293 RS-39 1 38051U 11062C 14288.65876392 .70201582 12497-4 27925-2 0 413 2 38051 051.5964 324.1908 0006422 269.6897 186.8903 16.43533377153081 E-STAR 1 38079U 12006C 15008.99556634 .01135703 43385-5 15950-2 0 1843 2 38079 069.4181 147.0100 0087650 044.1438 316.6569 15.98203607155043 GOLIAT 1 38085U 12006J 15008.77081252 .00378819 45226-4 16210-2 0 7055 2 38085 069.4253 163.2256 0172092 053.0956 007.5006 15.65958879154617 HORYU-2 1 38340U 12025D 15008.51774038 .00003078 00000-0 48087-3 0 659 2 38340 098.2935 334.6174 0010832 241.1096 118.9024 14.73549438142012 RS-40 1 38735U 12041C 15008.84763666 .00000040 00000-0 21992-3 0 9286 2 38735 082.4757 159.3228 0017321 166.8959 193.2575 12.42566302111128 PROITERES 1 38756U 12047B 15008.85218127 .00001276 00000-0 19524-3 0 5717 2 38756 098.2218 105.5174 0013415 088.2376 272.0335 14.75462333125505 BEESAT-3 1 39134U 13015E 15007.55301838 .00007980 00000-0 50623-3 0 8190 2 39134 064.8724 210.2764 0035480 273.7330 085.9735 15.09005903 94439 BEESAT-2 1 39136U 13015G 15008.52139173 .00010231 00000-0 66517-3 0 7945 2 39136 064.8730 208.4862 0035815 273.9439 085.7588 15.07895515 94562 LO-75 1 39382U 13064C 14295.69194059 .07301741 00000-0 36367-2 0 4875 2 39382 040.4713 030.2705 0002289 341.7175 018.4586 16.19795749470823 ZACUBE-1 1 39417U 13066B 15008.44085851 .00003040 00000-0 40607-3 0 5093 2 39417 097.7514 076.8499 0059933 297.0066 062.5034 14.79028964 61019 TRITON-1 1 39427U 13066M 15008.47093269 .00001733 00000-0 29426-3 0 3618 2 39427 097.7386 068.4787 0115644 317.1208 042.1022 14.66115566 60457 DELFIN3XT 1 39428U 13066N 15008.45662629 .00004292 00000-0 73090-3 0 3641 2 39428 097.7378 067.1063 0125141 320.9958 038.2269 14.64484617 60351 GOMX-1 1 39430U 13066Q 15008.63038203 .00001542 00000-0 29747-3 0 1451 2 39430 097.7297 063.1216 0154072 332.4983 026.8143 14.57531834 60137 MO-76 1 39436U 13066W 15008.16985366 .00029435 00000-0 24633-2 0 4616 2 39436 097.7605 084.3142 0021960 288.5337 071.3500 14.98214905 61463 LO-74 1 39440U 13066AA 15007.61495400 .00002149 00000-0 31833-3 0 3551 2 39440 097.7467 072.7326 0081794 306.8705 052.5024 14.73893564 60674 PUCPSAT-1 1 39442U 13066AC 15008.45427484 .00005281 00000-0 58279-3 0 3578 2 39442 097.7580 082.1061 0032527 290.6716 069.1014 14.87504911 60117 SHINAISAT 1 39572U 14009A 14328.13084988 .28848087 76253-5 66603-3 0 4474 2 39572 064.9728 197.0096 0013534 259.7861 100.1802 16.45181032 42403 TEIKYOSAT 1 39576U 14009E 14297.85867254 .09345816 76764-5 25176-3 0 4374 2 39576 064.9818 300.5833 0008491 317.3597 044.3862 16.45008906 37698 CO-77 1 39577U 14009F 14244.78324653 .10543803 76292-5 32273-3 0 3795 2 39577 064.9920 123.7668 0014904 269.7208 091.1897 16.43552757 29380 SPROUT 1 39770U 14029E 15007.79549251 .00001700 00000-0 21404-3 0 2453 2 39770 097.8730 106.8981 0010183 012.4966 347.6472 14.83292246 33859 POPSAT-HIP1 1 40028U 14033U 15008.80243238 .00004555 00000-0 52449-3 0 6194 2 40028 097.9688 268.8270 0014278 349.1664 010.9283 14.86163501 30103 EO-80 1 40032U 14033Y 15008.76766310 .00003271 00000-0 38103-3 0 6011 2 40032 097.9634 268.6170 0012616 345.5578 014.5278 14.85897027 30104 VELOX-1 1 40057U 14034E 15008.83145541 .00003406 00000-0 51371-3 0 6117 2 40057 098.2329 084.3114 0011624 034.1195 326.0739 14.74996803 28381 DAURIA DX 1 1 40071U 14037C 15008.86472095 .00001693 00000-0 23124-3 0 5813 2 40071 098.3775 073.6112 0009201 038.5643 321.6195 14.79992215 27223 UKUBE-1 1 40074U 14037F 15008.86957916 .00003700 00000-0 48079-3 0 5824 2 40074 098.3787 073.9525 0005451 050.6906 309.4765 14.81358407 27241 CHASQUI-1 1 40117U 98067ET 15008.78931839 .01188311 78401-3 18385-2 0 4465 2 40117 051.6319 144.7955 0008173 310.1871 049.8380 16.03648892 22402 HODOYOSHI-1 1 40299U 14070B 15008.88495095 .00005495 00000-0 27485-3 0 1970 2 40299 097.4702 092.4786 0012785 334.8724 117.0731 15.17766561 9638 CHUBUSAT-1 1 40300U 14070C 15008.91332760 .00007535 00000-0 39620-3 0 1977 2 40300 097.4683 092.2867 0022494 330.5458 156.2747 15.15734437 9639 QSAT-EOS 1 40301U 14070D 15008.87855507 .00011632 00000-0 64138-3 0 2136 2 40301 097.4636 091.9971 0033827 329.3279 138.7907 15.13638084 9619 TSUBAME 1 40302U 14070E 15008.91437378 .00008358 00000-0 49290-3 0 2069 2 40302 097.4618 091.7777 0043748 328.9893 142.8509 15.10996269 9592 /EX
